Time,TemperatureF,DewpointF,PressureIn,WindDirection,WindDirectionDegrees,WindSpeedMPH,WindSpeedGustMPH,Humidity,HourlyPrecipIn,Conditions,Clouds,dailyrainin,SoftwareType,DateUTC
2013-04-19 00:03:00,32.0,24.0,-100.00,North,350,16.0,22.0,72,-99.99,,,-99.99,,2013-04-19 05:03:00,
2013-04-19 00:11:00,32.0,24.0,-100.00,North,350,16.0,22.0,72,-99.99,,,-99.99,,2013-04-19 05:11:00,
2013-04-19 00:22:00,32.0,24.0,-100.00,North,350,16.0,22.0,72,-99.99,,,-99.99,,2013-04-19 05:22:00,
2013-04-19 00:32:00,31.0,24.0,-100.00,North,350,14.0,22.0,74,-99.99,,,-99.99,,2013-04-19 05:32:00,
2013-04-19 00:42:00,31.0,24.0,-100.00,North,350,14.0,22.0,74,-99.99,,,-99.99,,2013-04-19 05:42:00,
2013-04-19 00:52:00,31.0,24.0,-100.00,North,350,14.0,22.0,74,-99.99,,,-99.99,,2013-04-19 05:52:00,
2013-04-19 01:02:00,31.0,24.0,-100.00,NNW,340,12.0,20.0,77,-99.99,,,-99.99,,2013-04-19 06:02:00,
2013-04-19 01:12:00,31.0,24.0,-100.00,NNW,340,12.0,20.0,77,-99.99,,,-99.99,,2013-04-19 06:12:00,
2013-04-19 01:22:00,31.0,24.0,-100.00,NNW,340,12.0,20.0,77,-99.99,,,-99.99,,2013-04-19 06:22:00,
2013-04-19 01:32:00,31.0,24.0,-100.00,NNW,340,14.0,21.0,78,-99.99,,,-99.99,,2013-04-19 06:32:00,
2013-04-19 01:42:00,31.0,24.0,-100.00,NNW,340,14.0,21.0,78,-99.99,,,-99.99,,2013-04-19 06:42:00,
2013-04-19 01:53:00,31.0,24.0,-100.00,NNW,340,14.0,21.0,78,-99.99,,,-99.99,,2013-04-19 06:53:00,
2013-04-19 02:02:00,30.0,25.0,-100.00,NNW,345,12.0,20.0,80,-99.99,,,-99.99,,2013-04-19 07:02:00,
2013-04-19 02:12:00,30.0,25.0,-100.00,NNW,345,12.0,20.0,80,-99.99,,,-99.99,,2013-04-19 07:12:00,
2013-04-19 02:21:00,30.0,25.0,-100.00,NNW,345,12.0,20.0,80,-99.99,,,-99.99,,2013-04-19 07:21:00,
2013-04-19 02:32:00,30.0,25.0,-100.00,NNW,340,12.0,16.0,82,-99.99,,,-99.99,,2013-04-19 07:32:00,
2013-04-19 02:42:00,30.0,25.0,-100.00,NNW,340,12.0,16.0,82,-99.99,,,-99.99,,2013-04-19 07:42:00,
2013-04-19 02:52:00,30.0,25.0,-100.00,NNW,340,12.0,16.0,82,-99.99,,,-99.99,,2013-04-19 07:52:00,
2013-04-19 03:02:00,29.0,25.0,-100.00,North,350,12.0,17.0,83,-99.99,,,-99.99,,2013-04-19 08:02:00,
2013-04-19 03:12:00,29.0,25.0,-100.00,North,350,12.0,17.0,83,-99.99,,,-99.99,,2013-04-19 08:12:00,
2013-04-19 03:21:00,29.0,25.0,-100.00,North,350,12.0,17.0,83,-99.99,,,-99.99,,2013-04-19 08:21:00,
2013-04-19 03:32:00,29.0,24.0,-100.00,NNW,335,11.0,14.0,80,-99.99,,,-99.99,,2013-04-19 08:32:00,
2013-04-19 03:42:00,29.0,24.0,-100.00,NNW,335,11.0,14.0,80,-99.99,,,-99.99,,2013-04-19 08:42:00,
2013-04-19 03:52:00,29.0,24.0,-100.00,NNW,335,11.0,14.0,80,-99.99,,,-99.99,,2013-04-19 08:52:00,
2013-04-19 04:01:00,29.0,24.0,-100.00,NNW,340,12.0,16.0,82,-99.99,,,-99.99,,2013-04-19 09:01:00,
2013-04-19 04:12:00,29.0,24.0,-100.00,NNW,340,12.0,16.0,82,-99.99,,,-99.99,,2013-04-19 09:12:00,
2013-04-19 04:21:00,29.0,24.0,-100.00,NNW,340,12.0,16.0,82,-99.99,,,-99.99,,2013-04-19 09:21:00,
2013-04-19 04:32:00,28.0,24.0,-100.00,NNW,345,12.0,15.0,85,-99.99,,,-99.99,,2013-04-19 09:32:00,
2013-04-19 04:43:00,28.0,24.0,-100.00,NNW,345,12.0,15.0,85,-99.99,,,-99.99,,2013-04-19 09:43:00,
2013-04-19 04:52:00,28.0,24.0,-100.00,NNW,345,12.0,15.0,85,-99.99,,,-99.99,,2013-04-19 09:52:00,
2013-04-19 05:02:00,28.0,24.0,-100.00,NNW,330,11.0,17.0,85,-99.99,,,-99.99,,2013-04-19 10:02:00,
2013-04-19 05:13:00,28.0,24.0,-100.00,NNW,330,11.0,17.0,85,-99.99,,,-99.99,,2013-04-19 10:13:00,
2013-04-19 05:23:00,28.0,24.0,-100.00,NNW,330,11.0,17.0,85,-99.99,,,-99.99,,2013-04-19 10:23:00,
2013-04-19 05:33:00,27.0,24.0,-100.00,NNW,340,11.0,15.0,87,-99.99,,,-99.99,,2013-04-19 10:33:00,
2013-04-19 05:42:00,27.0,24.0,-100.00,NNW,340,11.0,15.0,87,-99.99,,,-99.99,,2013-04-19 10:42:00,
2013-04-19 05:52:00,27.0,24.0,-100.00,NNW,340,11.0,15.0,87,-99.99,,,-99.99,,2013-04-19 10:52:00,
2013-04-19 06:02:00,27.0,23.0,-100.00,NNW,345,12.0,16.0,85,-99.99,,,-99.99,,2013-04-19 11:02:00,
2013-04-19 06:11:00,27.0,23.0,-100.00,NNW,345,12.0,16.0,85,-99.99,,,-99.99,,2013-04-19 11:11:00,
2013-04-19 06:22:00,27.0,23.0,-100.00,NNW,345,12.0,16.0,85,-99.99,,,-99.99,,2013-04-19 11:22:00,
2013-04-19 06:32:00,28.0,22.0,-100.00,NNW,340,12.0,20.0,78,-99.99,,,-99.99,,2013-04-19 11:32:00,
2013-04-19 06:43:00,28.0,22.0,-100.00,NNW,340,12.0,20.0,78,-99.99,,,-99.99,,2013-04-19 11:43:00,
2013-04-19 06:52:00,28.0,22.0,-100.00,NNW,340,12.0,20.0,78,-99.99,,,-99.99,,2013-04-19 11:52:00,
2013-04-19 07:03:00,27.0,21.0,-100.00,NNW,340,10.0,17.0,77,-99.99,,,-99.99,,2013-04-19 12:03:00,
2013-04-19 07:12:00,27.0,21.0,-100.00,NNW,340,10.0,17.0,77,-99.99,,,-99.99,,2013-04-19 12:12:00,
2013-04-19 07:22:00,27.0,21.0,-100.00,NNW,340,10.0,17.0,77,-99.99,,,-99.99,,2013-04-19 12:22:00,
2013-04-19 07:32:00,27.0,21.0,-100.00,NNW,335,15.0,19.0,78,-99.99,,,-99.99,,2013-04-19 12:32:00,
2013-04-19 07:42:00,27.0,21.0,-100.00,NNW,335,15.0,19.0,78,-99.99,,,-99.99,,2013-04-19 12:42:00,
2013-04-19 07:53:00,27.0,21.0,-100.00,NNW,335,15.0,19.0,78,-99.99,,,-99.99,,2013-04-19 12:53:00,
2013-04-19 08:01:00,27.0,22.0,-100.00,NNW,335,13.0,21.0,80,-99.99,,,-99.99,,2013-04-19 13:01:00,
2013-04-19 08:11:00,27.0,22.0,-100.00,NNW,335,13.0,21.0,80,-99.99,,,-99.99,,2013-04-19 13:11:00,
2013-04-19 08:21:00,27.0,22.0,-100.00,NNW,335,13.0,21.0,80,-99.99,,,-99.99,,2013-04-19 13:21:00,
2013-04-19 08:32:00,28.0,20.0,-100.00,North,350,16.0,23.0,72,-99.99,,,-99.99,,2013-04-19 13:32:00,
2013-04-19 08:42:00,28.0,20.0,-100.00,North,350,16.0,23.0,72,-99.99,,,-99.99,,2013-04-19 13:42:00,
2013-04-19 08:52:00,28.0,20.0,-100.00,North,350,16.0,23.0,72,-99.99,,,-99.99,,2013-04-19 13:52:00,
2013-04-19 09:02:00,28.0,20.0,-100.00,North,350,19.0,29.0,70,-99.99,,,-99.99,,2013-04-19 14:02:00,
2013-04-19 09:11:00,28.0,20.0,-100.00,North,350,19.0,29.0,70,-99.99,,,-99.99,,2013-04-19 14:11:00,
2013-04-19 09:22:00,28.0,20.0,-100.00,North,350,19.0,29.0,70,-99.99,,,-99.99,,2013-04-19 14:22:00,
2013-04-19 09:32:00,28.0,20.0,-100.00,North,0,21.0,30.0,70,-99.99,,,-99.99,,2013-04-19 14:32:00,
2013-04-19 09:43:00,28.0,20.0,-100.00,North,0,21.0,30.0,70,-99.99,,,-99.99,,2013-04-19 14:43:00,
2013-04-19 09:52:00,28.0,20.0,-100.00,North,0,21.0,30.0,70,-99.99,,,-99.99,,2013-04-19 14:52:00,
2013-04-19 10:01:00,29.0,20.0,-100.00,North,5,19.0,29.0,71,-99.99,,,-99.99,,2013-04-19 15:01:00,
2013-04-19 10:12:00,29.0,20.0,-100.00,North,5,19.0,29.0,71,-99.99,,,-99.99,,2013-04-19 15:12:00,
2013-04-19 10:21:00,29.0,20.0,-100.00,North,5,19.0,29.0,71,-99.99,,,-99.99,,2013-04-19 15:21:00,
2013-04-19 10:33:00,28.0,20.0,-100.00,North,0,21.0,29.0,72,-99.99,,,-99.99,,2013-04-19 15:33:00,
2013-04-19 10:43:00,28.0,20.0,-100.00,North,0,21.0,29.0,72,-99.99,,,-99.99,,2013-04-19 15:43:00,
2013-04-19 10:52:00,28.0,20.0,-100.00,North,0,21.0,29.0,72,-99.99,,,-99.99,,2013-04-19 15:52:00,
2013-04-19 11:03:00,29.0,21.0,-100.00,North,355,21.0,28.0,74,-99.99,,,-99.99,,2013-04-19 16:03:00,
2013-04-19 11:13:00,29.0,21.0,-100.00,North,355,21.0,28.0,74,-99.99,,,-99.99,,2013-04-19 16:13:00,
2013-04-19 11:23:00,29.0,21.0,-100.00,North,355,21.0,28.0,74,-99.99,,,-99.99,,2013-04-19 16:23:00,
2013-04-19 11:32:00,29.0,21.0,-100.00,North,0,20.0,30.0,72,-99.99,,,-99.99,,2013-04-19 16:32:00,
2013-04-19 11:43:00,29.0,21.0,-100.00,North,0,20.0,30.0,72,-99.99,,,-99.99,,2013-04-19 16:43:00,
2013-04-19 11:53:00,29.0,21.0,-100.00,North,0,20.0,30.0,72,-99.99,,,-99.99,,2013-04-19 16:53:00,
2013-04-19 12:02:00,30.0,22.0,-100.00,North,350,19.0,28.0,70,-99.99,,,-99.99,,2013-04-19 17:02:00,
2013-04-19 12:12:00,30.0,22.0,-100.00,North,350,19.0,28.0,70,-99.99,,,-99.99,,2013-04-19 17:12:00,
2013-04-19 12:21:00,30.0,22.0,-100.00,North,350,19.0,28.0,70,-99.99,,,-99.99,,2013-04-19 17:21:00,
2013-04-19 12:33:00,31.0,22.0,-100.00,North,350,17.0,28.0,67,-99.99,,,-99.99,,2013-04-19 17:33:00,
2013-04-19 12:43:00,31.0,22.0,-100.00,North,350,17.0,28.0,67,-99.99,,,-99.99,,2013-04-19 17:43:00,
2013-04-19 12:52:00,31.0,22.0,-100.00,North,350,17.0,28.0,67,-99.99,,,-99.99,,2013-04-19 17:52:00,
2013-04-19 13:02:00,31.0,22.0,-100.00,North,350,17.0,28.0,67,-99.99,,,-99.99,,2013-04-19 18:02:00,
2013-04-19 14:02:00,32.0,23.0,-100.00,NNW,340,17.0,27.0,69,-99.99,,,-99.99,,2013-04-19 19:02:00,
2013-04-19 14:11:00,32.0,23.0,-100.00,NNW,340,17.0,27.0,69,-99.99,,,-99.99,,2013-04-19 19:11:00,
2013-04-19 14:21:00,32.0,23.0,-100.00,NNW,340,17.0,27.0,69,-99.99,,,-99.99,,2013-04-19 19:21:00,
2013-04-19 14:32:00,33.0,24.0,-100.00,NNW,330,25.0,34.0,68,-99.99,,,-99.99,,2013-04-19 19:32:00,
2013-04-19 14:42:00,33.0,24.0,-100.00,NNW,330,25.0,34.0,68,-99.99,,,-99.99,,2013-04-19 19:42:00,
2013-04-19 14:52:00,33.0,24.0,-100.00,NNW,330,25.0,34.0,68,-99.99,,,-99.99,,2013-04-19 19:52:00,
2013-04-19 15:02:00,34.0,24.0,-100.00,NNW,340,23.0,34.0,68,-99.99,,,-99.99,,2013-04-19 20:02:00,
2013-04-19 15:11:00,34.0,24.0,-100.00,NNW,340,23.0,34.0,68,-99.99,,,-99.99,,2013-04-19 20:11:00,
2013-04-19 15:22:00,34.0,24.0,-100.00,NNW,340,23.0,34.0,68,-99.99,,,-99.99,,2013-04-19 20:22:00,
2013-04-19 15:32:00,33.0,24.0,-100.00,NNW,340,23.0,32.0,69,-99.99,,,-99.99,,2013-04-19 20:32:00,
2013-04-19 15:42:00,33.0,24.0,-100.00,NNW,340,23.0,32.0,69,-99.99,,,-99.99,,2013-04-19 20:42:00,
2013-04-19 15:52:00,33.0,24.0,-100.00,NNW,340,23.0,32.0,69,-99.99,,,-99.99,,2013-04-19 20:52:00,
2013-04-19 16:01:00,33.0,24.0,-100.00,NNW,345,23.0,34.0,69,-99.99,,,-99.99,,2013-04-19 21:01:00,
2013-04-19 16:11:00,33.0,24.0,-100.00,NNW,345,23.0,34.0,69,-99.99,,,-99.99,,2013-04-19 21:11:00,
2013-04-19 16:21:00,33.0,24.0,-100.00,NNW,345,23.0,34.0,69,-99.99,,,-99.99,,2013-04-19 21:21:00,
2013-04-19 16:32:00,33.0,22.0,-100.00,NNW,345,22.0,34.0,65,-99.99,,,-99.99,,2013-04-19 21:32:00,
2013-04-19 16:43:00,33.0,22.0,-100.00,NNW,345,22.0,34.0,65,-99.99,,,-99.99,,2013-04-19 21:43:00,
2013-04-19 16:53:00,33.0,22.0,-100.00,NNW,345,22.0,34.0,65,-99.99,,,-99.99,,2013-04-19 21:53:00,
2013-04-19 17:02:00,33.0,22.0,-100.00,NNW,345,22.0,34.0,65,-99.99,,,-99.99,,2013-04-19 22:02:00,
2013-04-19 18:03:00,33.0,24.0,-100.00,NNW,340,26.0,35.0,67,-99.99,,,-99.99,,2013-04-19 23:03:00,
2013-04-19 18:11:00,33.0,24.0,-100.00,NNW,340,26.0,35.0,67,-99.99,,,-99.99,,2013-04-19 23:11:00,
2013-04-19 18:22:00,33.0,24.0,-100.00,NNW,340,26.0,35.0,67,-99.99,,,-99.99,,2013-04-19 23:22:00,
2013-04-19 18:32:00,33.0,24.0,-100.00,NNW,340,26.0,35.0,67,-99.99,,,-99.99,,2013-04-19 23:32:00,
2013-04-19 20:01:00,32.0,23.0,-100.00,NNW,335,16.0,24.0,69,-99.99,,,-99.99,,2013-04-20 01:01:00,
2013-04-19 20:11:00,32.0,23.0,-100.00,NNW,335,16.0,24.0,69,-99.99,,,-99.99,,2013-04-20 01:11:00,
2013-04-19 20:21:00,32.0,23.0,-100.00,NNW,335,16.0,24.0,69,-99.99,,,-99.99,,2013-04-20 01:21:00,
2013-04-19 20:32:00,31.0,22.0,-100.00,NNW,335,16.0,25.0,70,-99.99,,,-99.99,,2013-04-20 01:32:00,
2013-04-19 20:42:00,31.0,22.0,-100.00,NNW,335,16.0,25.0,70,-99.99,,,-99.99,,2013-04-20 01:42:00,
2013-04-19 20:52:00,31.0,22.0,-100.00,NNW,335,16.0,25.0,70,-99.99,,,-99.99,,2013-04-20 01:52:00,
2013-04-19 21:01:00,31.0,22.0,-100.00,NNW,335,16.0,25.0,70,-99.99,,,-99.99,,2013-04-20 02:01:00,
2013-04-19 22:01:00,29.0,23.0,-100.00,NW,320,12.0,15.0,76,-99.99,,,-99.99,,2013-04-20 03:01:00,
2013-04-19 22:11:00,29.0,23.0,-100.00,NW,320,12.0,15.0,76,-99.99,,,-99.99,,2013-04-20 03:11:00,
2013-04-19 22:21:00,29.0,23.0,-100.00,NW,320,12.0,15.0,76,-99.99,,,-99.99,,2013-04-20 03:21:00,
2013-04-19 22:33:00,29.0,24.0,-100.00,NW,320,9.0,13.0,82,-99.99,,,-99.99,,2013-04-20 03:33:00,
2013-04-19 22:43:00,29.0,24.0,-100.00,NW,320,9.0,13.0,82,-99.99,,,-99.99,,2013-04-20 03:43:00,
2013-04-19 22:53:00,29.0,24.0,-100.00,NW,320,9.0,13.0,82,-99.99,,,-99.99,,2013-04-20 03:53:00,
2013-04-19 23:03:00,28.0,25.0,-100.00,NW,310,9.0,12.0,86,-99.99,,,-99.99,,2013-04-20 04:03:00,
2013-04-19 23:12:00,28.0,25.0,-100.00,NW,310,9.0,12.0,86,-99.99,,,-99.99,,2013-04-20 04:12:00,
2013-04-19 23:23:00,28.0,25.0,-100.00,NW,310,9.0,12.0,86,-99.99,,,-99.99,,2013-04-20 04:23:00,
2013-04-19 23:32:00,28.0,25.0,-100.00,NW,310,9.0,12.0,86,-99.99,,,-99.99,,2013-04-20 04:32:00,